CAPE
0 0 0 0 0 0 0 0 0 0 0 0 0 0 0 20 0 58 60 64 77 118 389 963 1400 1358 1275 1189 919 679 652 698 805 817 678 387 235 60 41 10 0 0 0 0 0 0 0 0 0
0 0 0 0 0 0 0 0 0 0 0 0 0 0 0 25 0 1 2 156 130 330 640 98 1376 1290 1279 1074 985 825 802 600 593 573 500 292 215 114 12 0 0 0 0 0 0 0 0 0 0
0 0 0 0 0 0 0 0 0 0 0 0 0 0 0 48 2 0 59 210 227 742 779 148 1401 1281 1319 1078 911 823 789 661 654 607 424 256 161 74 34 20 3 0 0 0 2 0 0 1 7
0 0 0 0 0 0 0 0 0 0 0 0 0 0 0 0 38 0 206 163 412 884 668 877 1351 1289 1317 1150 977 775 674 552 492 408 270 173 134 97 62 49 31 4 0 0 0 10 27 47 65
0 0 0 0 0 0 0 0 0 0 0 0 0 0 0 0 140 147 199 164 278 640 505 829 1462 1338 1416 1269 1111 865 631 456 340 251 183 167 140 113 85 79 42 29 29 34 37 58 83 99 155
0 0 0 0 0 0 0 0 0 0 0 0 0 2 0 81 248 150 171 178 147 365 476 348 1641 1533 1382 1274 1153 925 695 565 371 277 252 252 196 186 151 138 126 167 196 129 122 195 251 320 370
0 0 0 0 0 0 0 0 0 0 0 0 24 7 11 62 139 202 157 194 296 345 585 436 924 1073 1487 1398 1207 1029 748 586 421 303 292 303 278 254 214 236 245 272 394 520 588 412 397 430 635
0 0 0 0 0 0 0 0 0 0 0 0 0 5 23 87 363 398 249 321 361 499 558 731 810 545 327 387 1504 1319 1086 810 586 504 483 439 487 438 317 297 356 482 570 700 757 520 514 716 827
0 0 0 0 0 0 0 0 0 0 0 0 0 0 0 166 390 321 400 342 344 453 860 765 590 836 448 61 355 1432 1229 1076 929 737 724 419 90 127 84 118 316 621 748 757 612 590 820 964 940
0 0 0 0 0 0 0 0 0 0 0 0 0 0 0 80 170 65 75 127 200 303 571 866 1068 830 848 204 303 799 388 486 239 135 145 157 125 161 63 141 584 797 842 728 746 950 1127 1043 687
0 0 0 0 0 0 0 0 0 0 0 2 0 0 0 0 0 0 0 0 0 1 27 568 1012 1289 1024 798 434 538 764 426 392 251 597 474 183 241 163 151 249 322 677 628 915 1130 1026 888 807
0 0 0 0 0 0 0 0 0 0 0 0 0 0 0 0 0 0 0 0 0 0 0 289 1021 1572 1646 1070 882 780 734 810 616 487 1118 918 654 815 419 184 269 304 291 494 953 1068 1166 1142 1073
0 0 0 0 0 0 0 0 0 0 0 0 0 0 0 0 0 0 0 0 0 0 12 35 86 1374 1684 1980 1325 1612 1215 980 1049 673 784 847 462 1019 409 426 263 430 352 454 895 993 1267 1205 1245
0 0 0 0 0 0 0 0 0 0 0 0 0 0 0 0 0 0 0 0 0 0 14 33 17 307 1433 1647 2022 2149 2170 1584 1275 958 688 1059 738 1118 451 605 373 359 460 395 602 949 1154 1291 1212
0 0 0 0 0 0 0 0 0 0 0 0 0 0 0 0 0 0 0 0 1 1 17 58 144 162 1129 1858 1874 1834 1547 1534 1181 1193 1372 948 1339 1564 1118 443 475 328 574 563 606 1037 1314 1222 1176
0 0 0 0 0 0 0 0 0 0 0 0 0 0 0 0 0 0 0 0 11 37 27 26 27 0 447 1932 1530 1399 1150 1118 1108 1104 1178 1119 1343 1156 1108 555 474 391 602 501 608 920 1046 1046 1201
0 0 0 0 0 0 0 0 0 0 0 0 0 0 0 0 0 0 0 0 0 7 88 85 105 60 575 1139 994 1541 1865 1381 1087 1060 1215 1245 1327 1277 1085 825 474 1183 461 566 472 528 787 1078 1577
0 0 0 0 0 0 0 0 0 0 0 0 0 0 0 0 0 0 0 0 0 1 42 177 448 631 406 373 758 780 1095 1242 1141 1116 1219 1316 1447 1302 1319 984 871 751 515 595 417 668 1057 1265 1307
0 0 0 0 0 0 0 0 0 0 0 0 0 0 0 0 0 0 0 0 0 0 240 582 978 1544 432 96 577 1024 1093 1316 1227 1213 1369 1391 1377 1368 1389 1183 1084 913 644 584 1036 945 1623 1425 1260
0 0 0 0 0 0 0 0 0 0 0 0 0 0 0 0 0 0 0 0 0 0 314 715 1060 964 717 334 1118 1120 1341 1327 1469 1385 1360 1448 1441 1448 1349 1445 1241 1022 530 642 883 1519 1656 1431 1264
0 0 0 0 0 3 0 0 0 0 0 0 0 0 0 0 0 0 0 0 0 0 142 106 451 443 777 883 1291 1680 1756 1602 1581 1308 1328 1360 1454 1852 1223 1244 1273 1110 691 728 2035 1865 1590 1086 1120
0 0 0 0 0 0 0 0 0 0 0 0 0 0 0 0 0 0 0 0 0 0 0 0 77 176 397 1390 2052 2498 1685 1391 1432 1631 1230 1459 1539 1305 1242 1458 1309 1234 859 1896 1432 1379 1422 1437 966
4 14 14 31 0 0 0 0 0 0 0 0 0 0 0 0 0 0 0 0 0 0 0 0 4 32 437 1307 1843 1870 1961 1722 1810 1625 1460 1597 1507 1558 1519 1591 1508 1495 1774 1944 1452 1222 1585 1112 656
42 37 21 64 27 0 0 0 0 0 0 0 0 0 0 0 0 0 0 0 0 0 0 0 172 602 1070 1517 1800 2094 2046 1974 1986 2103 1902 1710 1659 1695 1726 1692 1882 2047 1791 1677 1259 1246 1127 790 530
54 66 0 0 0 0 0 0 0 0 0 0 0 0 0 0 0 0 0 0 0 0 0 421 969 1303 1491 1600 1820 1986 2323 2278 2492 2329 2154 2155 1884 1843 1958 1997 1886 1643 1672 1390 1216 1164 761 694 569
83 71 48 0 0 0 0 0 0 0 0 0 0 0 0 0 0 0 0 0 0 0 375 977 1195 1513 1636 1820 2004 2249 2446 2421 2430 2435 2250 1973 1725 1645 1909 1868 1720 1490 1375 1125 1012 742 612 635 725
149 155 127 92 30 88 2 29 0 0 0 0 0 0 0 0 6 45 9 0 100 839 1367 1744 1733 1786 1929 2132 2241 2404 2450 2519 2338 2168 1915 1549 1644 1667 1656 1609 1416 1258 1074 902 881 535 733 730 890
188 123 93 135 0 0 0 0 0 0 0 0 0 0 0 190 333 240 200 368 1148 1625 2222 2191 2125 2144 2116 2138 2243 2276 2230 2146 2088 1791 1324 1321 1473 1341 1547 1464 1276 1050 733 741 867 668 794 853 833
100 202 196 209 110 11 0 0 2 0 0 0 0 0 0 128 528 724 807 1101 1489 2209 2285 2391 2271 2177 2103 1976 1954 1967 1856 1738 1501 1377 1417 1558 1552 1442 1184 914 615 505 663 902 1002 1059 846 674 526
3 65 17 305 154 27 9 24 19 0 0 0 0 0 0 168 544 698 1356 1827 2100 2144 2127 2147 2106 2017 1904 1838 1800 1632 1337 1241 1332 1379 1389 1332 1158 746 384 280 340 543 625 752 817 685 492 151 41
CIN
-0 -0 -0 -0 -0 -0 -0 -0 -0 -0 -0 -0 -0 -0 -0 -17 -0 -2 -138 -138 -122 -196 -308 -458 -389 -345 -311 -279 -295 -323 -306 -268 -235 -198 -193 -218 -236 -295 -316 -248 -0 -0 -0 -0 -0 -0 -0 -0 -0
-0 -0 -0 -0 -0 -0 -0 -0 -0 -0 -0 -0 -0 -0 -0 -15 -0 -13 -50 -186 -155 -186 -322 -465 -410 -397 -345 -332 -314 -308 -298 -298 -280 -261 -252 -268 -291 -312 -412 -0 -0 -0 -0 -0 -0 -0 -0 -0 -0
-0 -0 -0 -0 -0 -0 -0 -0 -0 -0 -0 -0 -0 -0 -0 -41 -9 -0 -56 -188 -152 -205 -294 -391 -448 -432 -382 -360 -343 -335 -309 -308 -286 -273 -282 -306 -326 -372 -418 -456 -152 -0 -0 -0 -177 -0 -0 -94 -208
-0 -0 -0 -0 -0 -0 -0 -0 -0 -0 -0 -0 -0 -0 -0 -0 -44 -0 -112 -151 -142 -184 -231 -399 -474 -449 -401 -386 -379 -371 -354 -353 -331 -314 -336 -371 -373 -404 -430 -425 -432 -86 -0 -0 -0 -401 -330 -273 -227
-0 -0 -0 -0 -0 -0 -0 -0 -0 -0 -0 -0 -0 -0 -0 -0 -106 -59 -100 -123 -111 -127 -203 -283 -456 -441 -392 -371 -369 -363 -366 -383 -385 -378 -381 -382 -378 -399 -412 -401 -427 -442 -432 -416 -384 -315 -256 -210 -159
-0 -0 -0 -0 -0 -0 -0 -0 -0 -0 -0 -0 -0 -10 -0 -63 -59 -56 -49 -53 -72 -100 -168 -224 -422 -399 -380 -369 -372 -369 -381 -377 -400 -388 -374 -359 -372 -361 -361 -350 -358 -324 -295 -336 -314 -245 -191 -155 -121
-0 -0 -0 -0 -0 -0 -0 -0 -0 -0 -0 -0 -16 -18 -10 -37 -25 -36 -44 -56 -77 -89 -144 -175 -301 -431 -364 -359 -377 -382 -406 -397 -409 -400 -375 -353 -325 -328 -336 -345 -325 -284 -207 -171 -131 -166 -143 -115 -69
-0 -0 -0 -0 -0 -0 -0 -0 -0 -0 -0 -0 -0 -15 -19 -20 -43 -45 -35 -38 -51 -66 -96 -133 -217 -297 -377 -387 -334 -351 -377 -394 -391 -374 -353 -319 -278 -281 -292 -307 -279 -209 -158 -112 -90 -125 -116 -58 -36
-0 -0 -0 -0 -0 -0 -0 -0 -0 -0 -0 -0 -0 -0 -0 -65 -50 -36 -39 -47 -41 -49 -97 -131 -159 -201 -258 -255 -362 -336 -340 -336 -337 -339 -313 -343 -407 -381 -397 -396 -263 -165 -117 -90 -104 -104 -48 -23 -21
-0 -0 -0 -0 -0 -0 -0 -0 -0 -0 -0 -0 -0 -0 -0 -92 -36 -53 -35 -34 -31 -30 -50 -93 -190 -209 -220 -216 -252 -359 -391 -407 -448 -455 -450 -439 -422 -355 -397 -339 -176 -119 -99 -112 -88 -48 -23 -21 -14
-0 -0 -0 -0 -0 -0 -0 -0 -0 -0 -0 -30 -0 -0 -0 -0 -0 -0 -0 -0 -2 -12 -65 -60 -160 -247 -235 -208 -216 -235 -277 -343 -380 -427 -340 -356 -386 -327 -363 -301 -266 -224 -129 -115 -67 -32 -40 -23 -14
-0 -0 -0 -0 -0 -0 -0 -0 -0 -0 -0 -0 -0 -0 -0 -0 -0 -0 -0 -0 -0 -0 -0 -79 -127 -240 -280 -176 -197 -180 -197 -233 -295 -354 -289 -289 -294 -239 -287 -300 -248 -238 -183 -125 -41 -35 -37 -26 -21
-0 -0 -0 -0 -0 -0 -0 -0 -0 -0 -0 -0 -0 -0 -0 -0 -0 -0 -0 -0 -0 -0 -99 -112 -125 -174 -241 -275 -166 -164 -173 -183 -224 -271 -330 -319 -341 -213 -295 -261 -259 -189 -161 -128 -56 -30 -29 -45 -8
-0 -0 -0 -0 -0 -0 -0 -0 -0 -0 -0 -0 -0 -0 -0 -0 -0 -0 -0 -0 -0 -0 -109 -123 -138 -176 -211 -235 -236 -158 -201 -170 -218 -238 -290 -318 -303 -202 -301 -256 -274 -225 -169 -130 -101 -39 -12 -3 -0
-0 -0 -0 -0 -0 -0 -0 -0 -0 -0 -0 -0 -0 -0 -0 -0 -0 -0 -0 -0 -175 -160 -166 -171 -172 -199 -196 -201 -206 -192 -157 -231 -204 -250 -259 -315 -257 -162 -219 -324 -276 -257 -164 -149 -103 -41 -9 -0 -0
-0 -0 -0 -0 -0 -0 -0 -0 -0 -0 -0 -0 -0 -0 -0 -0 -0 -0 -0 -0 -215 -224 -240 -231 -134 -18 -202 -153 -180 -200 -185 -219 -251 -245 -302 -322 -275 -260 -255 -301 -281 -262 -180 -165 -128 -52 -11 -0 -0
-0 -0 -0 -0 -0 -0 -0 -0 -0 -0 -0 -0 -0 -0 -0 -0 -0 -0 -0 -0 -0 -217 -278 -226 -195 -195 -168 -197 -216 -208 -227 -261 -244 -277 -294 -310 -295 -271 -249 -253 -287 -130 -225 -180 -168 -111 -26 -0 -0
-0 -0 -0 -0 -0 -0 -0 -0 -0 -0 -0 -0 -0 -0 -0 -0 -0 -0 -0 -0 -0 -46 -312 -250 -187 -152 -238 -272 -262 -246 -242 -301 -315 -302 -304 -308 -280 -256 -216 -238 -233 -233 -228 -175 -189 -81 -3 -0 -0
-0 -0 -0 -0 -0 -0 -0 -0 -0 -0 -0 -0 -0 -0 -0 -0 -0 -0 -0 -0 -0 -0 -239 -178 -145 -156 -279 -253 -201 -186 -200 -272 -318 -330 -311 -294 -268 -219 -211 -211 -213 -208 -186 -167 -28 -9 -0 -0 -0
-0 -0 -0 -0 -0 -0 -0 -0 -0 -0 -0 -0 -0 -0 -0 -0 -0 -0 -0 -0 -0 -0 -195 -165 -118 -158 -258 -228 -214 -171 -205 -215 -268 -299 -318 -268 -227 -211 -220 -161 -165 -172 -112 -146 -60 -0 -0 -0 -0
-0 -0 -0 -0 -0 -0 -0 -0 -0 -0 -0 -0 -0 -0 -0 -0 -0 -0 -0 -0 -0 -0 -218 -98 -171 -192 -210 -236 -244 -283 -244 -292 -293 -333 -306 -261 -209 -146 -201 -175 -138 -134 -146 -83 -0 -0 -0 -0 -0
-0 -0 -0 -0 -0 -0 -0 -0 -0 -0 -0 -0 -0 -0 -0 -0 -0 -0 -0 -0 -0 -0 -0 -0 -300 -274 -258 -241 -158 -187 -219 -256 -271 -242 -295 -223 -177 -190 -168 -110 -98 -68 -71 -0 -0 -0 -0 -0 -0
-0 -0 -0 -0 -0 -0 -0 -0 -0 -0 -0 -0 -0 -0 -0 -0 -0 -0 -0 -0 -0 -0 -0 -0 -441 -409 -263 -239 -206 -241 -186 -174 -199 -220 -239 -173 -153 -107 -86 -49 -17 -1 -0 -0 -0 -0 -0 -0 -0
-1 -0 -0 -0 -0 -0 -0 -0 -0 -0 -0 -0 -0 -0 -0 -0 -0 -0 -0 -0 -0 -0 -0 -0 -337 -237 -251 -271 -268 -212 -169 -149 -135 -134 -142 -124 -94 -48 -19 -1 -0 -0 -0 -0 -0 -0 -0 -0 -0
-2 -0 -0 -0 -0 -0 -0 -0 -0 -0 -0 -0 -0 -0 -0 -0 -0 -0 -0 -0 -0 -0 -0 -215 -203 -202 -258 -263 -241 -196 -132 -114 -77 -80 -67 -35 -28 -5 -0 -0 -0 -0 -0 -0 -0 -0 -0 -0 -0
-1 -0 -0 -0 -0 -0 -0 -0 -0 -0 -0 -0 -0 -0 -0 -0 -0 -0 -0 -0 -0 -0 -195 -201 -197 -191 -219 -193 -167 -128 -87 -65 -52 -29 -22 -5 -3 -4 -0 -0 -0 -0 -0 -0 -0 -0 -0 -0 -0
-0 -0 -0 -0 -1 -0 -0 -0 -0 -0 -0 -0 -0 -0 -0 -29 -20 -216 -82 -0 -235 -144 -209 -162 -164 -170 -151 -119 -104 -62 -42 -30 -39 -29 -13 -14 -0 -0 -0 -0 -0 -0 -0 -0 -0 -0 -0 -0 -0
-1 -1 -3 -0 -0 -0 -0 -0 -0 -0 -0 -0 -0 -0 -0 -94 -97 -163 -225 -180 -147 -171 -99 -106 -110 -100 -101 -80 -49 -44 -44 -34 -13 -12 -22 -1 -0 -0 -0 -0 -0 -0 -0 -0 -0 -0 -0 -0 -0
-0 -0 -0 -2 -0 -1 -0 -0 -0 -0 -0 -0 -0 -0 -0 -110 -132 -147 -169 -163 -158 -69 -71 -59 -57 -63 -51 -51 -62 -51 -40 -27 -22 -5 -0 -0 -0 -0 -0 -0 -0 -0 -0 -0 -0 -0 -0 -0 -0
-56 -4 -1 -0 -0 -9 -4 -2 -4 -0 -0 -0 -0 -0 -0 -85 -151 -168 -97 -65 -38 -39 -47 -51 -48 -46 -47 -54 -49 -38 -46 -27 -0 -0 -0 -0 -0 -0 -2 -2 -0 -0 -0 -0 -0 -0 -0 -9 -8
Wind_Speed
nan nan nan nan nan nan nan nan nan nan nan nan nan nan nan nan nan nan nan nan nan 33 35 37 38 38 39 43 41 40 41 44 46 45 43 41 39 nan nan nan nan nan nan nan nan nan nan nan nan
nan nan nan nan nan nan nan nan nan nan nan nan nan nan nan nan nan nan nan 23 30 34 42 nan 38 36 38 43 41 38 39 44 46 47 47 45 42 41 nan nan nan nan nan nan nan nan nan nan nan
nan nan nan nan nan nan nan nan nan nan nan nan nan nan nan nan nan nan nan 26 29 37 39 38 46 41 37 44 41 37 38 44 47 48 48 47 46 nan nan nan nan nan nan nan nan nan nan nan nan
nan nan nan nan nan nan nan nan nan nan nan nan nan nan nan nan nan nan 29 28 32 36 40 42 47 41 37 44 42 38 38 46 48 49 47 48 47 nan nan nan nan nan nan nan nan nan nan nan nan
nan nan nan nan nan nan nan nan nan nan nan nan nan nan nan nan 24 30 34 28 29 35 36 37 43 40 38 42 42 37 40 48 48 47 46 46 47 45 nan nan nan nan nan nan nan nan nan nan 31
nan nan nan nan nan nan nan nan nan nan nan nan nan nan nan nan 30 35 34 32 31 35 33 34 40 34 35 39 37 36 42 47 45 46 48 49 47 45 42 41 41 38 38 37 35 34 32 30 29
nan nan nan nan nan nan nan nan nan nan nan nan nan nan nan nan 38 35 33 35 35 33 33 33 33 32 33 32 33 36 41 43 43 45 47 50 48 46 41 40 39 34 34 36 33 32 30 30 30
nan nan nan nan nan nan nan nan nan nan nan nan nan nan nan nan 38 36 33 34 35 35 31 27 29 32 33 34 33 37 37 42 41 42 44 46 46 43 39 37 38 35 34 35 35 34 32 30 28
nan nan nan nan nan nan nan nan nan nan nan nan nan nan nan 39 40 38 35 34 35 28 27 30 35 37 36 nan 37 35 36 39 41 44 46 50 nan 40 nan 36 40 38 37 35 35 34 31 30 26
nan nan nan nan nan nan nan nan nan nan nan nan nan nan nan nan 41 nan nan 35 34 34 34 39 37 35 35 37 37 37 37 39 41 43 48 44 44 38 nan 37 35 40 40 40 39 36 34 31 26
nan nan nan nan nan nan nan nan nan nan nan nan nan nan nan nan nan nan nan nan nan nan nan 38 39 38 36 37 38 35 38 38 39 43 44 45 41 35 36 35 38 39 42 40 41 39 35 35 29
nan nan nan nan nan nan nan nan nan nan nan nan nan nan nan nan nan nan nan nan nan nan nan 37 41 47 39 37 38 40 42 43 42 44 45 40 37 36 35 35 36 38 43 40 37 41 31 35 33
nan nan nan nan nan nan nan nan nan nan nan nan nan nan nan nan nan nan nan nan nan nan nan nan nan 45 44 41 38 40 42 43 44 43 46 39 36 39 39 36 34 39 42 42 34 34 39 41 38
nan nan nan nan nan nan nan nan nan nan nan nan nan nan nan nan nan nan nan nan nan nan nan nan nan 45 47 41 40 40 42 41 43 44 42 41 38 42 37 33 34 38 40 38 35 34 38 36 23
nan nan nan nan nan nan nan nan nan nan nan nan nan nan nan nan nan nan nan nan nan nan nan nan 38 43 43 42 39 39 41 43 43 41 41 42 43 41 37 35 37 38 40 37 37 35 37 37 32
nan nan nan nan nan nan nan nan nan nan nan nan nan nan nan nan nan nan nan nan nan nan nan nan nan nan 43 42 42 42 44 43 43 43 39 42 42 40 41 40 38 36 40 40 38 36 38 38 41
nan nan nan nan nan nan nan nan nan nan nan nan nan nan nan nan nan nan nan nan nan nan nan nan 37 nan 41 45 44 45 45 44 43 42 40 43 43 42 42 41 35 38 41 38 37 37 36 38 38
nan nan nan nan nan nan nan nan nan nan nan nan nan nan nan nan nan nan nan nan nan nan nan 39 39 40 44 46 49 46 45 43 40 40 42 45 44 48 43 39 36 41 39 35 36 33 38 35 36
nan nan nan nan nan nan nan nan nan nan nan nan nan nan nan nan nan nan nan nan nan nan 40 42 41 41 48 nan 50 48 44 41 40 41 44 46 49 46 42 38 40 34 31 33 37 36 38 36 34
nan nan nan nan nan nan nan nan nan nan nan nan nan nan nan nan nan nan nan nan nan nan 41 41 40 42 47 48 50 45 42 41 41 43 46 46 47 44 40 36 32 31 33 35 38 40 38 34 34
nan nan nan nan nan nan nan nan nan nan nan nan nan nan nan nan nan nan nan nan nan nan 39 39 39 39 41 43 45 44 46 42 44 44 45 45 42 38 32 28 30 33 33 37 40 38 34 33 31
nan nan nan nan nan nan nan nan nan nan nan nan nan nan nan nan nan nan nan nan nan nan nan nan nan 40 41 41 40 42 42 39 41 44 42 39 36 35 31 33 32 34 35 41 39 35 33 30 28
nan nan nan nan nan nan nan nan nan nan nan nan nan nan nan nan nan nan nan nan nan nan nan nan nan nan 32 35 33 38 32 41 42 41 41 35 34 34 35 35 36 38 35 38 37 35 30 27 19
nan nan nan nan nan nan nan nan nan nan nan nan nan nan nan nan nan nan nan nan nan nan nan nan 28 27 29 30 30 32 37 39 41 41 36 36 36 34 36 37 36 36 33 33 33 29 26 21 20
nan nan nan nan nan nan nan nan nan nan nan nan nan nan nan nan nan nan nan nan nan nan nan 28 25 24 25 28 33 35 38 38 37 36 36 39 36 34 36 36 33 32 32 33 29 26 25 22 21
nan nan nan nan nan nan nan nan nan nan nan nan nan nan nan nan nan nan nan nan nan nan 23 25 21 24 28 32 36 36 38 34 33 34 37 35 34 35 35 32 32 33 34 27 25 23 21 24 23
7 14 12 nan nan nan nan nan nan nan nan nan nan nan nan nan nan nan nan nan 20 24 23 19 25 29 32 35 37 36 33 33 36 39 35 33 37 36 33 34 35 33 26 26 24 18 20 21 23
21 19 nan 15 nan nan nan nan nan nan nan nan nan nan nan 54 48 33 23 22 29 26 26 27 30 33 35 36 32 32 36 35 36 35 36 35 34 34 34 34 27 24 24 22 19 17 19 21 22
16 14 9 11 16 nan nan nan nan nan nan nan nan nan nan 40 41 41 32 30 27 24 26 28 32 34 31 30 31 32 33 34 33 34 33 33 33 33 31 26 24 23 23 18 14 14 17 20 23
nan nan nan 18 11 nan nan nan nan nan nan nan nan nan nan 34 30 36 33 26 21 23 26 29 28 27 28 30 32 32 31 31 31 32 33 33 33 29 26 23 22 23 17 13 13 14 16 25 nan
Wind_Direction
nan nan nan nan nan nan nan nan nan nan nan nan nan nan nan nan nan nan nan nan nan 324 329 336 337 336 343 340 337 336 338 344 344 342 340 338 335 nan nan nan nan nan nan nan nan nan nan nan nan
nan nan nan nan nan nan nan nan nan nan nan nan nan nan nan nan nan nan nan 328 342 331 337 nan 337 331 336 338 335 331 334 344 343 340 341 340 341 337 nan nan nan nan nan nan nan nan nan nan nan
nan nan nan nan nan nan nan nan nan nan nan nan nan nan nan nan nan nan nan 325 328 329 335 339 341 333 331 332 331 328 328 338 340 339 340 341 342 nan nan nan nan nan nan nan nan nan nan nan nan
nan nan nan nan nan nan nan nan nan nan nan nan nan nan nan nan nan nan 300 322 327 331 331 330 342 335 327 325 327 332 332 335 335 337 339 338 340 nan nan nan nan nan nan nan nan nan nan nan nan
nan nan nan nan nan nan nan nan nan nan nan nan nan nan nan nan 267 283 304 315 324 328 331 325 337 335 321 323 323 330 330 334 335 338 341 337 338 334 nan nan nan nan nan nan nan nan nan nan 324
nan nan nan nan nan nan nan nan nan nan nan nan nan nan nan nan 285 292 303 312 319 321 325 320 327 328 323 318 317 328 330 332 335 339 337 335 337 333 334 331 332 332 331 328 330 329 330 328 321
nan nan nan nan nan nan nan nan nan nan nan nan nan nan nan nan 278 286 299 306 313 318 317 315 320 318 323 321 322 326 325 330 332 338 336 334 334 337 337 331 327 327 326 325 328 326 325 325 326
nan nan nan nan nan nan nan nan nan nan nan nan nan nan nan nan 276 281 292 303 313 313 318 322 324 322 327 326 318 319 324 328 331 333 331 330 333 336 333 325 321 324 324 326 326 325 325 324 323
nan nan nan nan nan nan nan nan nan nan nan nan nan nan nan 265 272 280 286 297 302 309 314 326 328 324 321 nan 318 319 327 328 334 334 336 333 nan 333 nan 327 319 322 321 323 322 321 321 321 326
nan nan nan nan nan nan nan nan nan nan nan nan nan nan nan nan 270 nan nan 295 304 308 309 319 323 325 318 317 319 321 327 329 338 338 335 333 330 327 nan 323 314 319 323 324 326 322 316 319 320
nan nan nan nan nan nan nan nan nan nan nan nan nan nan nan nan nan nan nan nan nan nan nan 313 317 321 320 315 309 310 315 319 329 337 335 331 323 320 315 309 310 312 320 319 322 316 310 317 311
nan nan nan nan nan nan nan nan nan nan nan nan nan nan nan nan nan nan nan nan nan nan nan 304 312 314 316 308 310 315 314 316 326 331 335 325 315 316 308 309 313 314 310 316 316 308 307 307 308
nan nan nan nan nan nan nan nan nan nan nan nan nan nan nan nan nan nan nan nan nan nan nan nan nan 310 310 312 310 312 311 315 323 326 329 325 320 315 308 305 311 310 311 313 310 308 310 311 311
nan nan nan nan nan nan nan nan nan nan nan nan nan nan nan nan nan nan nan nan nan nan nan nan nan 301 302 306 309 303 304 311 317 321 324 330 318 316 313 306 304 313 311 314 312 312 317 323 327
nan nan nan nan nan nan nan nan nan nan nan nan nan nan nan nan nan nan nan nan nan nan nan nan 285 292 298 300 301 299 299 306 315 322 323 325 323 314 311 305 305 308 308 312 306 314 313 321 316
nan nan nan nan nan nan nan nan nan nan nan nan nan nan nan nan nan nan nan nan nan nan nan nan nan nan 294 293 292 293 297 307 312 316 314 323 318 318 310 305 305 310 309 311 306 307 317 318 320
nan nan nan nan nan nan nan nan nan nan nan nan nan nan nan nan nan nan nan nan nan nan nan nan 282 nan 284 289 291 291 297 306 309 309 311 312 313 313 305 303 306 304 303 306 304 310 313 315 313
nan nan nan nan nan nan nan nan nan nan nan nan nan nan nan nan nan nan nan nan nan nan nan 277 275 275 279 281 285 287 294 305 304 304 302 308 306 312 309 301 304 300 304 302 301 305 305 309 307
nan nan nan nan nan nan nan nan nan nan nan nan nan nan nan nan nan nan nan nan nan nan 273 274 272 273 278 nan 282 286 298 301 299 297 305 307 306 309 304 299 302 308 306 304 309 308 312 307 299
nan nan nan nan nan nan nan nan nan nan nan nan nan nan nan nan nan nan nan nan nan nan 269 268 269 275 279 276 274 282 292 294 292 297 302 304 305 301 300 311 303 307 305 308 308 310 306 303 307
nan nan nan nan nan nan nan nan nan nan nan nan nan nan nan nan nan nan nan nan nan nan 261 261 266 272 276 277 279 284 286 285 292 298 298 299 299 296 304 303 304 305 306 305 305 306 310 303 302
nan nan nan nan nan nan nan nan nan nan nan nan nan nan nan nan nan nan nan nan nan nan nan nan nan 274 282 292 288 289 289 292 293 292 293 288 295 299 301 309 306 308 304 298 304 307 304 304 305
nan nan nan nan nan nan nan nan nan nan nan nan nan nan nan nan nan nan nan nan nan nan nan nan nan nan 286 289 288 290 291 286 290 291 287 288 291 295 303 307 309 304 300 301 300 302 304 300 303
nan nan nan nan nan nan nan nan nan nan nan nan nan nan nan nan nan nan nan nan nan nan nan nan 279 283 280 285 291 289 288 288 287 282 287 290 290 293 303 306 303 299 300 299 297 300 302 302 309
nan nan nan nan nan nan nan nan nan nan nan nan nan nan nan nan nan nan nan nan nan nan nan 276 271 269 276 281 283 285 287 287 285 290 289 291 290 296 302 304 302 301 300 298 298 299 298 306 309
nan nan nan nan nan nan nan nan nan nan nan nan nan nan nan nan nan nan nan nan nan nan 262 259 261 274 278 281 282 282 282 277 279 284 284 284 290 294 298 298 298 299 302 301 299 296 301 307 309
280 183 172 nan nan nan nan nan nan nan nan nan nan nan nan nan nan nan nan nan 247 250 248 259 268 272 278 277 273 275 271 276 275 284 286 288 289 287 295 296 298 301 301 300 300 302 310 309 308
208 187 nan 183 nan nan nan nan nan nan nan nan nan nan nan 209 213 218 219 236 238 244 257 259 266 271 271 273 271 265 268 275 282 283 284 288 286 291 296 299 299 297 301 303 309 308 311 314 308
211 201 190 161 160 nan nan nan nan nan nan nan nan nan nan 200 208 217 218 229 237 249 255 259 262 268 271 268 265 269 271 278 281 282 285 284 287 292 299 297 300 302 304 308 308 309 309 315 310
nan nan nan 199 136 nan nan nan nan nan nan nan nan nan nan 200 202 202 217 227 240 247 251 257 262 268 267 267 266 270 277 277 280 280 282 285 287 292 297 298 298 301 302 305 305 308 306 294 nan